Flag for U.S.A. Weather past 2 weeks in Green Bay, Wisconsin, U.S.A.

Now
59 °F

Clear.


Feels Like: 59 °F
Forecast: 59 / 78 °F
Wind: 5 mph from Northwest

Location: Austin Straubel International Airport

Current Time: Aug 2, 2014 at 3:40:50 AM

Latest Report: Aug 2, 2014 at 2:53 AM


Visibility: 8 mi

Pressure: 30.08 "Hg

Humidity: 93%

Dew point: 57 °F

Location of Green BayLocation

Historic Weather in Green Bay — Graph

°F

Green Bay temperature yesterday

Maximum temperature yesterday: 81 °F (at 1:53 PM)
Minimum temperature yesterday: 57 °F (at 3:53 AM)
Average temperature yesterday: 68 °F

Past Weeks' High & Low Weather Summary

 TemperatureHumidityPressure
High85 °F (Jul 21, 2:53 PM)100% (Jul 30, 3:53 AM)30.20 "Hg (Jul 30, 3:53 AM)
Low52 °F (Jul 24, 4:53 AM)38% (Jul 24, 9:53 AM)29.67 "Hg (Jul 27, 9:53 AM)
Average68 °F72%29.99 "Hg
* Reported Jul 18 1:53 AM — Aug 2 1:53 AM, Green Bay, Weather by CustomWeather, © 2014

Note: Actual official high and low records may vary slightly from our data, if they occured in-between our weather recording intervals... More about our weather records

Advertising

Green Bay weather history for previous 24 hours

 ConditionsComfort  
Time TempWeatherWind HumidityBarometerVisibility
1:53 AM
Aug 2
61 °FClear.No wind87%30.09 "Hg8 mi
12:53 AM61 °FClear.5 mph90%30.09 "Hg8 mi
11:53 PM
Aug 1
63 °FClear.8 mph90%30.09 "Hg7 mi
10:53 PM63 °FFog.No wind97%30.08 "Hg6 mi
9:53 PM66 °FClear.5 mph90%30.09 "Hg8 mi
8:53 PM68 °FSunny.5 mph84%30.07 "Hg8 mi
7:53 PM71 °FSunny.6 mph78%30.06 "Hg7 mi
6:53 PM74 °FSunny.3 mph74%30.05 "Hg7 mi
5:53 PM74 °FSunny.3 mph79%30.05 "Hg7 mi
4:53 PM76 °FSunny.3 mph67%30.04 "Hg7 mi
3:53 PM75 °FPassing clouds.7 mph71%30.03 "Hg7 mi
2:53 PM80 °FPassing clouds.5 mph52%30.03 "Hg8 mi
1:53 PM81 °FScattered clouds.6 mph51%30.03 "Hg9 mi
12:53 PM79 °FSunny.5 mph60%30.04 "Hg9 mi
11:53 AM78 °FSunny.3 mph64%30.05 "Hg9 mi
10:53 AM75 °FSunny.5 mph69%30.05 "Hg9 mi
9:53 AM71 °FSunny.3 mph78%30.05 "Hg8 mi
8:53 AM67 °FSunny.No wind87%30.05 "Hg7 mi
7:53 AM64 °FFog.5 mph90%30.05 "Hg5 mi
6:53 AM60 °FFog.No wind96%30.03 "Hg3 mi
5:53 AM57 °FFog.No wind100%30.02 "Hg3 mi
5:01 AM57 °FFog.3 mph96%30.01 "Hg2 mi
3:53 AM57 °FFog.3 mph96%30.00 "Hg6 mi
Weather by CustomWeather, © 2014

See weather overviewHow to use our weather pages